Погода в Новодмитровке

Украина / Херсонская область     46°12′28″N   34°30′47″E
темп.,
°C
ветер,
м/с
пор.,
м/с
влажн.,
%
обл.,
%
осадки,
мм/ч
давл.,
гПа
погр.,
м
19 апреля, пн
пн1900:00+9в2486100 0.0 1016193
03:00+9вюв2386100 0.0 1016164
06:00+9св2389100 0.3 1015158
09:00+10всв237876 0.4 1015285
12:00+13в1261100 0.0 1014928
15:00+14ююв3263100 0.0 1014878
18:00+11юв3477100 0.0 1013245
21:00+10вюв3482100 0.0 1012196
20 апреля, вт
вт2000:00+10в4784100 0.0 1009297
03:00+9всв5994100 2.4 1007398
06:00+9св5996100 4.8 1004423
09:00+9св5795100 10.1 1002423
12:00+10сз6790100 1.2 1001657
15:00+10з81290100 1.8 1004806
18:00+10з6128458 0.3 1007684
21:00+9зюз71287100 0.3 1010332
21 апреля, ср
ср2100:00+8зюз61189100 0.0 1011287
03:00+8юз599193 0.0 1013227
06:00+7юз479414 0.0 1014153
09:00+11зюз5774100 0.0 1016416
12:00+15зюз6754100 0.0 10161189
15:00+16зюз6645100 0.0 10161316
18:00+14зюз5761100 0.1 1017532
21:00+10ююз2390100 2.1 1019122
22 апреля, чт
чт2200:00+10юз3785100 0.4 1019197
03:00+9ююз4985100 0.4 1019209
06:00+9ююз51085100 0.0 1020309
09:00+11юз6107589 0.1 1021546
12:00+16юз67586 0.5 10211111
15:00+17зюз68532 1.4 10211488
18:00+15зюз45612 0.6 1021623
21:00+11зюз36790 0.6 1022111
23 апреля, пт
пт2300:00+9юз35860 0.0 102281
03:00+8юз348733 0.0 102261
06:00+8ююз3387100 0.0 102243
09:00+12ю3467100 0.0 1022282
12:00+15ююв44535 0.0 1021789
15:00+17ююв34464 0.0 10191093
18:00+15юв445541 0.0 1019385
21:00+11вюв2277100 0.0 101929